Find Local Weather

World > North America > United States > Massachusetts

Boston, Massachusetts Regional Weather

Lat: 42.32N, Lon: 71.07W
Wx Zone: MAZ015
Warning FLW WEATHER ALERT - (More Info. Click Here) Warning
Feedback
Expires:201808180300;;231082
ASUS41 KOKX 180205
RWROKX

Regional Weather Roundup
National Weather Service New York NY
1000 PM EDT FRI AUG 17 2018

Note: "FAIR" indicates few or no clouds below 12,000 feet with no
significant weather and/or obstructions to visibility.


CTZ002-004>006-009-010-012-RIZ004-006-007-MAZ004-011-015-180300-
Southern New England

 In CT
  
CITY           SKY/WX    TMP DP  RH WIND       PRES   REMARKS
Bradley Intl   LGT RAIN  77  73  87 S8        29.93F                  
Hartford       LGT RAIN  78  73  84 S7        29.93F                  
Danbury        MOCLDY    74  72  93 E3        29.95F                  
Wtrbury/Oxford MOCLDY    74  73  97 S8        29.98R                  
Norwalk Harbor   N/A     77 N/A N/A SW8         N/A                   
Bridgeport     FAIR      81  74  79 SW8       29.95R                  
Meriden        LGT RAIN  77  74  90 S7        29.94F                  
New Haven      FAIR      80  75  84 S6        29.96S                  
Chester        FAIR      77  75  94 S6        29.97F                  
Groton         FAIR      76  73  91 SW9       29.96F                  
Willimantic    FAIR      78  73  84 S6        29.96F                  

 In RI
  
CITY           SKY/WX    TMP DP  RH WIND       PRES   REMARKS
Providence     CLOUDY    78  74  87 SW10      29.97F                  
Block Island   FAIR      76  75  97 SW12      29.99S                  
Westerly       FAIR      78  76  93 S9        29.98F                  
 
In MA
  
CITY           SKY/WX    TMP DP  RH WIND       PRES   REMARKS
Boston         CLOUDY    79  71  76 SW10      29.93F                  
Worcester      LGT RAIN  73  71  93 SW12      29.96F                  
Westfield      LGT RAIN  76  75  97 S7        29.93                   
Provincetown   FAIR      76  72  87 S15       29.97F                  
Nantucket      CLOUDY    71  71 100 S8        30.01S FOG              
$$


SKY/WX - Weather  TMP - Temperature  DP - Dewpoint  RH - Relative Humidity
WIND - Wind Direction/Speed PRES - Barometric Pressure